Location: Newport
(44.6370°N, 124.0520°W)
Time: 01:53:41
(UTC-07:00)

ISS - Pass Details

Date: 10 October 2017
Orbit: 401 x 408 km, 51.6° (Epoch: 20 October)

Event Time Altitude Azimuth Distance (km) Brightness Sun altitude
Rises 21:22:35 0° 294° (WNW) 2,329 1.2 -29.4°
Reaches altitude 10° 21:24:49 10° 284° (WNW) 1,467 -0.1 -29.8°
Enters shadow 21:25:24 14° 278° (W) 1,257 -0.6 -29.9°
